Location: Clyde
(45.1830°S, 169.3170°E)
Time: 17:17:50
(UTC+12:00)

SMAP - Pass Details

Date: 14 May 2021
Orbit: 681 x 683 km, 98.1° (Epoch: 16 June)

Event Time Altitude Azimuth Distance (km) Brightness Sun altitude
Exits shadow 19:32:25 - 172° (S) 3,003 6.3 -22.4°
Reaches altitude 10° 19:34:30 10° 176° (S) 2,165 5.5 -22.8°
Maximum altitude 19:39:06 53° 251° (WSW) 858 3.8 -23.6°
Drops below altitude 10° 19:43:39 10° 327° (NNW) 2,137 6.0 -24.4°
Sets 19:45:55 0° 331° (NNW) 3,045 6.8 -24.8°
